When you browse on this site, cookies collect data to enhance your experience and personalize the content and advertising you see.
Visit our Privacy Policy to learn more. By continuing to use the site, you agree to this use of cookies and data.
  • în România
  • Lista ţărilor
  • Pe 7 zile
  • Temperatura apei
  • Hartă satelitară
  • Meteo pe hartă
  • Widget-uri
  • user-avatar
    Intrare

    Meteo pe oră la El Paso

    Astăzi, 10 Decembrie, Luni

    Timp Temperatura Precipitaţii Vânt Presiune Umiditate
    00:00 +8°C° 0 mm 1 m/s 667 mmHg 49%
    01:00 +8°C° 0 mm 1 m/s 667 mmHg 49%
    02:00 +7°C° 0 mm 1 m/s 666 mmHg 49%
    03:00 +7°C° 0 mm 1 m/s 666 mmHg 50%
    04:00 +7°C° 0 mm 1 m/s 666 mmHg 50%
    05:00 +6°C° 0 mm 1 m/s 666 mmHg 50%
    06:00 +7°C° 0 mm 1 m/s 666 mmHg 50%
    07:00 +7°C° 0 mm 1 m/s 666 mmHg 49%
    08:00 +6°C° 0 mm 2 m/s 667 mmHg 48%
    09:00 +8°C° 0 mm 2 m/s 667 mmHg 42%
    10:00 +10°C° 0 mm 2 m/s 667 mmHg 37%
    11:00 +12°C° 0 mm 2 m/s 668 mmHg 31%
    12:00 +13°C° 0 mm 2 m/s 667 mmHg 29%
    13:00 +14°C° 0 mm 2 m/s 667 mmHg 26%
    14:00 +15°C° 0 mm 2 m/s 666 mmHg 24%
    15:00 +14°C° 0 mm 2 m/s 666 mmHg 26%
    16:00 +13°C° 0 mm 2 m/s 665 mmHg 28%
    17:00 +13°C° 0 mm 2 m/s 665 mmHg 30%
    18:00 +12°C° 0 mm 2 m/s 665 mmHg 31%
    19:00 +12°C° 0 mm 2 m/s 665 mmHg 32%
    20:00 +10°C° 0 mm 2 m/s 665 mmHg 33%
    21:00 +10°C° 0 mm 2 m/s 665 mmHg 36%
    22:00 +10°C° 0 mm 2 m/s 665 mmHg 38%
    23:00 +10°C° 0 mm 2 m/s 664 mmHg 41%

    Mâine, 11 Decembrie, Marţi

    Timp Temperatura Precipitaţii Vânt Presiune Umiditate
    00:00 +10°C° 0 mm 2 m/s 664 mmHg 45%
    01:00 +9°C° 0 mm 2 m/s 664 mmHg 49%
    02:00 +9°C° 0 mm 2 m/s 663 mmHg 53%
    03:00 +9°C° 0 mm 2 m/s 663 mmHg 56%
    04:00 +9°C° 0 mm 2 m/s 663 mmHg 58%
    05:00 +8°C° 0 mm 2 m/s 662 mmHg 61%
    06:00 +9°C° 0 mm 2 m/s 662 mmHg 60%
    07:00 +9°C° 0 mm 2 m/s 663 mmHg 60%
    08:00 +9°C° 0 mm 2 m/s 663 mmHg 59%
    09:00 +12°C° 0 mm 2 m/s 663 mmHg 54%
    10:00 +13°C° 0 mm 2 m/s 663 mmHg 49%
    11:00 +14°C° 0 mm 3 m/s 663 mmHg 44%
    12:00 +16°C° 0 mm 3 m/s 663 mmHg 41%
    13:00 +15°C° 0 mm 4 m/s 662 mmHg 37%
    14:00 +17°C° 0 mm 4 m/s 662 mmHg 34%
    15:00 +17°C° 0 mm 3 m/s 661 mmHg 36%
    16:00 +16°C° 0 mm 3 m/s 661 mmHg 38%
    17:00 +15°C° 0 mm 2 m/s 661 mmHg 39%
    18:00 +14°C° 0 mm 3 m/s 661 mmHg 39%
    19:00 +13°C° 0 mm 3 m/s 661 mmHg 39%
    20:00 +13°C° 0 mm 4 m/s 661 mmHg 39%
    21:00 +12°C° 0 mm 4 m/s 661 mmHg 40%
    22:00 +12°C° 0 mm 5 m/s 662 mmHg 42%
    23:00 +10°C° 0 mm 5 m/s 662 mmHg 43%

    Poimâine, 12 Decembrie, Miercuri

    Timp Temperatura Precipitaţii Vânt Presiune Umiditate
    00:00 +9°C° 0 mm 5 m/s 662 mmHg 43%
    01:00 +9°C° 0 mm 5 m/s 661 mmHg 43%
    02:00 +8°C° 0 mm 5 m/s 661 mmHg 43%
    03:00 +7°C° 0 mm 5 m/s 661 mmHg 44%
    04:00 +7°C° 0 mm 5 m/s 661 mmHg 44%
    05:00 +6°C° 0 mm 5 m/s 662 mmHg 45%
    06:00 +6°C° 0 mm 4 m/s 662 mmHg 45%
    07:00 +7°C° 0 mm 3 m/s 662 mmHg 46%
    08:00 +7°C° 0 mm 3 m/s 663 mmHg 47%
    09:00 +9°C° 0 mm 3 m/s 663 mmHg 41%
    10:00 +10°C° 0 mm 4 m/s 663 mmHg 35%
    11:00 +12°C° 0 mm 4 m/s 664 mmHg 30%
    12:00 +13°C° 0 mm 5 m/s 663 mmHg 27%
    13:00 +14°C° 0 mm 6 m/s 663 mmHg 24%
    14:00 +15°C° 0 mm 7 m/s 662 mmHg 21%
    15:00 +15°C° 0 mm 7 m/s 662 mmHg 22%
    16:00 +14°C° 0 mm 6 m/s 661 mmHg 22%
    17:00 +13°C° 0 mm 6 m/s 661 mmHg 23%
    18:00 +13°C° 0 mm 6 m/s 661 mmHg 24%
    19:00 +11°C° 0 mm 7 m/s 661 mmHg 26%
    20:00 +11°C° 0 mm 7 m/s 661 mmHg 27%
    21:00 +10°C° 0 mm 8 m/s 661 mmHg 28%
    22:00 +10°C° 0 mm 8 m/s 662 mmHg 29%
    23:00 +9°C° 0 mm 8 m/s 662 mmHg 31%

    13 Decembrie, Joi

    Timp Temperatura Precipitaţii Vânt Presiune Umiditate
    00:00 +9°C° 0 mm 8 m/s 662 mmHg 32%
    01:00 +7°C° 0 mm 8 m/s 663 mmHg 33%
    02:00 +6°C° 0 mm 8 m/s 663 mmHg 34%
    03:00 +5°C° 0 mm 8 m/s 664 mmHg 30%
    04:00 +4°C° 0 mm 7 m/s 664 mmHg 26%
    05:00 +3°C° 0 mm 6 m/s 665 mmHg 22%
    06:00 +2°C° 0 mm 5 m/s 666 mmHg 23%
    07:00 +3°C° 0 mm 4 m/s 667 mmHg 24%
    08:00 +3°C° 0 mm 3 m/s 668 mmHg 25%
    09:00 +4°C° 0 mm 4 m/s 668 mmHg 22%
    10:00 +6°C° 0 mm 4 m/s 669 mmHg 19%
    11:00 +7°C° 0 mm 4 m/s 669 mmHg 17%
    12:00 +8°C° 0 mm 4 m/s 669 mmHg 16%
    13:00 +8°C° 0 mm 4 m/s 668 mmHg 15%
    14:00 +10°C° 0 mm 4 m/s 668 mmHg 14%
    15:00 +9°C° 0 mm 3 m/s 667 mmHg 16%
    16:00 +9°C° 0 mm 2 m/s 667 mmHg 18%
    17:00 +9°C° 0 mm 1 m/s 667 mmHg 20%
    18:00 +9°C° 0 mm 1 m/s 667 mmHg 20%
    19:00 +8°C° 0 mm 1 m/s 667 mmHg 20%
    20:00 +7°C° 0 mm 2 m/s 667 mmHg 20%
    21:00 +6°C° 0 mm 2 m/s 667 mmHg 21%
    22:00 +6°C° 0 mm 2 m/s 667 mmHg 21%
    23:00 +6°C° 0 mm 1 m/s 667 mmHg 22%

    14 Decembrie, Vineri

    Timp Temperatura Precipitaţii Vânt Presiune Umiditate
    00:00 +6°C° 0 mm 1 m/s 666 mmHg 23%
    01:00 +5°C° 0 mm 1 m/s 666 mmHg 23%
    02:00 +5°C° 0 mm 1 m/s 666 mmHg 24%
    03:00 +5°C° 0 mm 1 m/s 666 mmHg 24%
    04:00 +4°C° 0 mm 1 m/s 666 mmHg 24%
    05:00 +4°C° 0 mm 1 m/s 665 mmHg 25%
    06:00 +5°C° 0 mm 1 m/s 666 mmHg 24%
    07:00 +5°C° 0 mm 1 m/s 666 mmHg 24%
    08:00 +6°C° 0 mm 1 m/s 666 mmHg 24%
    09:00 +8°C° 0 mm 1 m/s 666 mmHg 20%
    10:00 +9°C° 0 mm 2 m/s 666 mmHg 16%
    11:00 +12°C° 0 mm 2 m/s 667 mmHg 13%
    12:00 +13°C° 0 mm 2 m/s 666 mmHg 12%
    13:00 +14°C° 0 mm 2 m/s 665 mmHg 11%
    14:00 +15°C° 0 mm 2 m/s 665 mmHg 10%
    15:00 +14°C° 0 mm 2 m/s 664 mmHg 12%
    16:00 +13°C° 0 mm 2 m/s 663 mmHg 14%
    17:00 +12°C° 0 mm 2 m/s 663 mmHg 15%
    18:00 +12°C° 0 mm 2 m/s 663 mmHg 16%
    19:00 +10°C° 0 mm 2 m/s 663 mmHg 17%
    20:00 +10°C° 0 mm 2 m/s 662 mmHg 18%
    21:00 +9°C° 0 mm 2 m/s 662 mmHg 19%
    22:00 +9°C° 0 mm 3 m/s 662 mmHg 20%
    23:00 +9°C° 0 mm 3 m/s 661 mmHg 22%

    15 Decembrie, Sâmbătă

    Timp Temperatura Precipitaţii Vânt Presiune Umiditate
    00:00 +8°C° 0 mm 2 m/s 661 mmHg 23%
    01:00 +8°C° 0 mm 2 m/s 660 mmHg 24%
    02:00 +8°C° 0 mm 2 m/s 660 mmHg 25%
    03:00 +9°C° 0 mm 1 m/s 660 mmHg 26%
    04:00 +9°C° 0 mm 1 m/s 660 mmHg 27%
    05:00 +9°C° 0 mm 1 m/s 659 mmHg 28%
    06:00 +9°C° 0.1 mm 1 m/s 660 mmHg 32%
    07:00 +9°C° 0.1 mm 1 m/s 660 mmHg 35%
    08:00 +8°C° 0.1 mm 0 m/s 661 mmHg 38%
    09:00 +10°C° 0 mm 1 m/s 661 mmHg 36%
    10:00 +11°C° 0 mm 1 m/s 661 mmHg 35%
    11:00 +12°C° 0 mm 2 m/s 661 mmHg 33%
    12:00 +12°C° 0 mm 3 m/s 661 mmHg 33%
    13:00 +12°C° 0 mm 4 m/s 661 mmHg 33%
    14:00 +13°C° 0 mm 4 m/s 660 mmHg 33%
    15:00 +12°C° 0 mm 5 m/s 661 mmHg 35%
    16:00 +12°C° 0 mm 5 m/s 661 mmHg 38%
    17:00 +12°C° 0 mm 5 m/s 661 mmHg 40%
    18:00 +10°C° 0 mm 5 m/s 661 mmHg 44%
    19:00 +9°C° 0 mm 5 m/s 662 mmHg 48%
    20:00 +8°C° 0 mm 5 m/s 662 mmHg 52%
    21:00 +8°C° 0 mm 4 m/s 662 mmHg 55%
    22:00 +7°C° 0 mm 4 m/s 662 mmHg 58%
    23:00 +7°C° 0 mm 4 m/s 663 mmHg 61%
    Arată mai mult